FW9328 Weather Reports


time (UTC)temp
C
wind
direction
speed
KPH
gust
KPH
rain 1hr
cm
rain 24hr
cm
rain mn
cm
humidity
%
barometer
mb
20210801205548 27 55 1.6 12.9 0.00 2.59 0.00 42 1029.1
20210801205043 27 46 3.2 16.1 0.00 2.59 0.00 42 1029.2
20210801204612 27 14 3.2 16.1 0.00 2.59 0.00 41 1029.2
20210801204039 27 33 4.8 14.5 0.00 2.59 0.00 40 1029.4
20210801203558 27 49 3.2 9.7 0.00 2.59 0.00 41 1029.4
20210801203137 27 106 0.0 6.4 0.00 2.59 0.00 41 1029.4
20210801202608 27 347 1.6 9.7 0.00 2.59 0.00 38 1029.5
20210801202040 27 14 4.8 9.7 0.00 2.59 0.00 38 1029.5
20210801201637 27 55 0.0 6.4 0.00 2.59 0.00 39 1029.6
20210801201053 26 0 0.0 6.4 0.00 2.59 0.00 42 1029.6
20210801200541 26 105 0.0 8.0 0.00 2.59 0.00 42 1029.6
20210801200148 26 0 1.6 9.7 0.00 2.59 0.00 44 1029.6
20210801195541 26 155 3.2 9.7 0.00 2.59 0.00 46 1029.8
20210801195048 26 0 1.6 8.0 0.00 2.59 0.00 44 1029.8
20210801194706 25 82 1.6 8.0 0.00 2.59 0.00 44 1030.0
20210801194040 25 46 1.6 8.0 0.00 2.59 0.00 45 1030.0
20210801193546 25 46 1.6 6.4 0.00 2.59 0.00 45 1030.2
20210801193141 24 44 1.6 6.4 0.00 2.59 0.00 49 1030.2
20210801192547 24 0 0.0 8.0 0.00 2.59 0.00 48 1030.3
20210801192041 24 207 1.6 8.0 0.00 2.59 0.00 49 1030.4
20210801191620 25 110 1.6 9.7 0.00 2.59 0.00 48 1030.4
20210801191106 25 24 3.2 9.7 0.00 2.59 0.00 47 1030.4
20210801190543 25 109 0.0 6.4 0.00 2.59 0.00 48 1030.5
20210801190119 25 139 1.6 6.4 0.00 2.59 0.00 49 1030.5
20210801185541 24 30 0.0 6.4 0.00 2.59 0.00 50 1030.6
20210801185038 24 0 1.6 16.1 0.00 2.59 0.00 50 1030.7
20210801184601 24 32 4.8 16.1 0.00 2.59 0.00 50 1030.7
20210801184048 24 125 1.6 6.4 0.00 2.59 0.00 55 1030.7
20210801183540 23 96 1.6 8.0 0.00 2.59 0.00 52 1030.8
20210801183149 23 0 0.0 12.9 0.00 2.59 0.00 56 1030.8
20210801182600 23 44 6.4 12.9 0.00 2.59 0.00 55 1031.0
20210801182043 23 117 1.6 6.4 0.00 2.59 0.00 54 1031.2
20210801181704 23 0 1.6 9.7 0.00 2.59 0.00 56 1031.1
20210801181039 23 104 3.2 12.9 0.00 2.59 0.00 56 1031.4
20210801180611 23 92 3.2 12.9 0.00 2.59 0.00 58 1031.5
20210801180126 23 360 1.6 12.9 0.00 2.59 0.00 58 1031.5
20210801175543 23 74 1.6 12.9 0.00 2.59 0.00 60 1031.4
20210801175100 23 360 3.2 16.1 0.00 2.59 0.00 58 1031.5
20210801174653 23 23 3.2 16.1 0.00 2.59 0.00 60 1031.6
20210801174056 23 30 3.2 14.5 0.00 2.59 0.00 61 1031.7
20210801173557 22 57 1.6 14.5 0.00 2.59 0.00 61 1031.6
20210801173111 22 17 3.2 14.5 0.00 2.59 0.00 62 1031.7
20210801172546 22 47 6.4 14.5 0.00 2.59 0.00 63 1031.7
20210801172039 22 67 1.6 11.3 0.00 2.59 0.00 63 1031.9
20210801171625 22 43 1.6 14.5 0.00 2.59 0.00 66 1031.9
20210801171057 22 32 3.2 14.5 0.00 2.59 0.00 64 1031.9
20210801170539 22 321 4.8 12.9 0.00 2.59 0.00 64 1031.9
20210801170219 22 43 1.6 11.3 0.00 2.59 0.00 64 1032.0
20210801165548 22 30 1.6 11.3 0.00 2.59 0.00 64 1031.8
20210801165042 22 35 3.2 9.7 0.00 2.59 0.00 66 1031.9
20210801164913 22 36 3.2 14.5 0.00 2.59 0.00 68 1031.8
20210801164041 21 348 4.8 14.5 0.00 2.59 0.00 67 1031.9
20210801163540 21 32 1.6 9.7 0.00 2.59 0.00 67 1031.9
20210801163138 21 55 1.6 8.0 0.00 2.59 0.00 63 1031.8
20210801162539 21 42 3.2 8.0 0.00 2.59 0.00 67 1031.9
20210801162113 21 52 1.6 11.3 0.00 2.59 0.00 69 1031.7
20210801161843 21 41 3.2 11.3 0.00 2.59 0.00 70 1031.9
20210801161039 21 57 1.6 6.4 0.00 2.59 0.00 70 1031.8
20210801160541 20 44 0.0 6.4 0.00 2.59 0.00 69 1031.8
20210801160108 20 0 0.0 6.4 0.00 2.59 0.00 69 1031.8
20210801155539 20 21 1.6 6.4 0.00 2.59 0.00 71 1031.8
20210801155042 20 37 3.2 6.4 0.00 2.59 0.00 71 1031.8
20210801154621 20 33 0.0 3.2 0.00 2.59 0.00 72 1031.7
20210801154041 20 0 0.0 4.8 0.00 2.59 0.00 74 1031.6
20210801153542 19 0 1.6 4.8 0.00 2.59 0.00 69 1031.7
20210801153200 19 182 0.0 4.8 0.00 2.59 0.00 72 1031.7
20210801152545 18 0 0.0 4.8 0.00 2.59 0.00 73 1031.7
20210801152104 18 150 0.0 3.2 0.00 2.59 0.00 72 1031.7
20210801151639 18 0 0.0 3.2 0.00 2.59 0.00 74 1031.7
20210801151038 18 150 0.0 1.6 0.00 2.59 0.00 79 1031.7
20210801150540 18 0 0.0 1.6 0.00 2.59 0.00 83 1031.8
20210801150201 18 0 0.0 4.8 0.00 2.59 0.00 81 1031.8
20210801145538 18 0 0.0 4.8 0.00 2.59 0.00 81 1031.9
20210801145043 18 30 0.0 3.2 0.00 2.59 0.00 81 1031.7
20210801144656 18 0 0.0 3.2 0.00 2.59 0.00 79 1031.9
20210801144041 18 0 0.0 3.2 0.00 2.59 0.00 81 1031.7
20210801143558 17 346 1.6 3.2 0.00 2.59 0.00 80 1031.7
20210801143219 17 328 0.0 3.2 0.00 2.59 0.00 81 1031.7
20210801142549 17 0 0.0 3.2 0.00 2.59 0.00 82 1031.7
20210801142043 17 0 0.0 3.2 0.00 2.59 0.00 84 1031.7
20210801141603 17 0 0.0 3.2 0.00 2.59 0.00 87 1031.7
20210801141046 17 302 0.0 3.2 0.00 2.59 0.00 85 1031.7
20210801140604 17 0 0.0 1.6 0.00 2.59 0.00 87 1031.7
20210801140140 16 0 0.0 1.6 0.00 2.59 0.00 88 1031.7
20210801135603 16 277 0.0 1.6 0.00 2.59 0.00 87 1031.7
20210801135046 16 0 0.0 1.6 0.00 2.59 0.00 92 1031.6
20210801134600 16 0 0.0 0.0 0.00 2.59 0.00 91 1031.5
20210801134110 16 0 0.0 0.0 0.00 2.59 0.00 90 1031.6
20210801133543 16 0 0.0 0.0 0.00 2.59 0.00 91 1031.6
20210801133108 16 0 0.0 0.0 0.00 2.59 0.00 93 1031.7
20210801132544 15 0 0.0 0.0 0.00 2.59 0.00 94 1031.6
20210801132105 15 0 0.0 1.6 0.00 2.59 0.00 93 1031.5
20210801131705 15 0 0.0 1.6 0.00 2.59 0.00 94 1031.5
20210801131118 15 0 0.0 1.6 0.00 2.59 0.00 94 1031.5
20210801130549 15 0 0.0 1.6 0.00 2.59 0.00 94 1031.4
20210801130148 15 0 0.0 0.0 0.00 2.59 0.00 93 1031.4
20210801125543 15 0 0.0 0.0 0.00 2.62 0.00 95 1031.3
20210801125108 14 0 0.0 0.0 0.00 2.62 0.00 94 1031.2
20210801124709 15 0 0.0 0.0 0.00 2.62 0.00 96 1031.2
20210801124058 14 0 0.0 0.0 0.00 2.62 0.00 96 1031.3
20210801123543 14 0 0.0 0.0 0.00 2.62 0.00 96 1031.2
20210801123218 14 0 0.0 0.0 0.00 2.62 0.00 96 1031.3
20210801122543 14 0 0.0 0.0 0.00 2.62 0.00 96 1031.3
20210801122043 14 0 0.0 0.0 0.00 2.62 0.00 96 1031.2
20210801121630 14 0 0.0 0.0 0.00 2.62 0.00 96 1031.2
20210801121044 14 0 0.0 0.0 0.00 2.62 0.00 95 1031.2
20210801120544 14 0 0.0 0.0 0.00 2.62 0.00 95 1031.1
20210801120214 14 0 0.0 0.0 0.00 2.62 0.00 95 1031.0
20210801115608 14 0 0.0 0.0 0.00 2.62 0.00 95 1031.1
20210801115042 14 0 0.0 0.0 0.00 2.62 0.00 95 1031.0
20210801114635 14 0 0.0 0.0 0.00 2.62 0.00 95 1031.1
20210801114045 14 0 0.0 0.0 0.00 2.62 0.00 95 1031.0
20210801113541 14 0 0.0 1.6 0.00 2.62 0.00 95 1031.0
20210801113148 14 0 0.0 3.2 0.00 2.62 0.00 95 1030.9
20210801112543 14 0 0.0 3.2 0.00 2.62 0.00 95 1030.9
20210801112040 14 0 0.0 1.6 0.00 2.62 0.00 95 1030.9
20210801111547 14 0 0.0 1.6 0.00 2.62 0.00 94 1031.0
20210801111041 14 0 0.0 1.6 0.00 2.62 0.00 94 1031.0
20210801110543 14 0 0.0 1.6 0.00 2.62 0.00 94 1030.9
20210801110109 14 0 0.0 0.0 0.00 2.62 0.00 93 1030.9
20210801105540 14 0 0.0 1.6 0.00 2.62 0.00 93 1030.8
20210801105047 14 0 0.0 1.6 0.00 2.62 0.00 92 1030.9
20210801104548 14 0 0.0 3.2 0.00 2.62 0.00 94 1030.8
20210801104041 14 277 0.0 3.2 0.00 2.62 0.00 94 1030.7
20210801103547 14 0 0.0 3.2 0.00 2.62 0.00 94 1030.7
20210801103114 14 0 0.0 1.6 0.00 2.62 0.00 94 1030.7
20210801102553 14 0 0.0 1.6 0.00 2.62 0.00 94 1030.8
20210801102041 14 0 0.0 3.2 0.00 2.62 0.00 95 1030.8
20210801101622 14 0 0.0 3.2 0.00 2.62 0.00 95 1030.7
20210801101038 15 266 0.0 3.2 0.00 2.62 0.00 95 1030.7
20210801100556 15 250 0.0 1.6 0.00 2.62 0.00 95 1030.6
20210801100147 15 0 0.0 1.6 0.00 2.62 0.00 95 1030.6
20210801095541 15 0 0.0 1.6 0.00 2.62 0.00 95 1030.5
20210801095039 15 0 0.0 0.0 0.00 2.62 0.00 95 1030.4
20210801094622 15 0 0.0 1.6 0.00 2.62 0.00 94 1030.4
20210801094039 15 0 0.0 1.6 0.00 2.62 0.00 95 1030.4
20210801093556 15 0 0.0 0.0 0.00 2.62 0.00 94 1030.5
20210801093114 15 0 0.0 0.0 0.00 2.62 0.00 95 1030.4
20210801092540 15 0 0.0 3.2 0.00 2.62 0.00 95 1030.3
20210801092040 15 0 0.0 3.2 0.00 2.62 0.00 95 1030.3
20210801091649 15 0 0.0 4.8 0.00 2.62 0.00 95 1030.3
20210801091040 15 0 0.0 4.8 0.00 2.62 0.00 95 1030.2
20210801090550 15 0 0.0 0.0 0.00 2.62 0.00 95 1030.2
20210801090139 15 0 0.0 0.0 0.00 2.62 0.00 94 1030.2
20210801085540 15 0 0.0 1.6 0.00 2.64 0.00 94 1030.1
20210801085111 15 0 0.0 1.6 0.00 2.64 0.00 94 1030.2
20210801084640 15 0 0.0 1.6 0.00 2.64 0.00 94 1030.2
20210801084039 15 0 0.0 1.6 0.00 2.64 0.00 94 1030.2
20210801083607 15 0 0.0 1.6 0.00 2.64 0.00 94 1030.2
20210801083130 16 0 0.0 1.6 0.00 2.64 0.00 95 1030.3
20210801082540 16 0 0.0 0.0 0.00 2.64 0.00 95 1030.3
20210801082044 16 0 0.0 0.0 0.00 2.64 0.00 95 1030.4
20210801081604 16 0 0.0 0.0 0.00 2.64 0.00 95 1030.5
20210801081054 16 0 0.0 0.0 0.00 2.64 0.00 94 1030.4
20210801080539 16 0 0.0 0.0 0.00 2.64 0.00 94 1030.4
20210801080110 16 0 0.0 1.6 0.00 2.64 0.00 95 1030.5
20210801075548 16 0 0.0 1.6 0.00 2.77 0.00 95 1030.6
20210801075040 16 0 0.0 1.6 0.00 2.77 0.00 95 1030.6
20210801074610 16 0 0.0 1.6 0.00 2.77 0.00 95 1030.6
20210801074040 16 0 0.0 1.6 0.00 2.77 0.00 95 1030.7
20210801073538 16 0 0.0 1.6 0.00 2.77 0.00 94 1030.9
20210801073205 16 0 0.0 1.6 0.00 2.77 0.00 95 1030.8
20210801072540 16 281 0.0 1.6 0.00 2.77 0.00 95 1030.8
20210801072043 16 0 0.0 0.0 0.00 2.77 0.00 94 1031.0
20210801071736 16 0 0.0 0.0 0.00 2.77 0.00 95 1031.0
20210801071053 16 0 0.0 0.0 0.00 2.77 0.00 95 1031.0
20210801070542 16 0 0.0 0.0 0.00 2.77 0.00 95 1031.0
20210801070209 16 0 0.0 0.0 0.00 2.77 0.00 95 1031.0
20210801065541 16 0 0.0 0.0 0.00 2.87 0.00 95 1031.1
20210801065039 16 0 0.0 0.0 0.00 2.87 0.00 94 1031.2
20210801064620 16 0 0.0 0.0 0.00 2.87 0.00 94 1031.3
20210801064045 16 0 0.0 1.6 0.00 2.87 0.00 94 1031.3
20210801063544 16 0 0.0 1.6 0.00 2.87 0.00 94 1031.3
20210801063238 16 281 0.0 1.6 0.00 2.87 0.00 95 1031.3
20210801062540 16 0 0.0 1.6 0.00 2.87 0.00 95 1031.4
20210801062113 16 0 0.0 3.2 0.00 2.87 0.00 95 1031.5
20210801061619 16 0 0.0 3.2 0.00 2.87 0.00 94 1031.4
20210801061047 16 0 0.0 1.6 0.00 2.87 0.00 94 1031.4
20210801060608 16 0 0.0 0.0 0.00 2.87 0.00 94 1031.3
20210801060215 16 0 0.0 1.6 0.00 2.87 0.00 94 1031.3
20210801055552 16 0 0.0 1.6 0.00 2.87 2.87 94 1031.4
20210801055038 16 0 0.0 1.6 0.00 2.87 2.87 94 1031.4
20210801054616 16 0 0.0 3.2 0.00 2.87 2.87 94 1031.4
20210801054040 16 0 0.0 3.2 0.00 2.87 2.87 94 1031.4
20210801053539 16 0 0.0 1.6 0.00 2.87 2.87 95 1031.4
20210801053140 16 0 0.0 1.6 0.00 2.87 2.87 95 1031.4
20210801052542 16 0 0.0 1.6 0.00 2.87 2.87 94 1031.4
20210801052042 16 0 0.0 1.6 0.00 2.87 2.87 94 1031.3
20210801051758 16 281 0.0 0.0 0.00 2.87 2.87 94 1031.3
20210801051038 16 0 0.0 1.6 0.00 2.87 2.87 94 1031.2
20210801050539 16 0 0.0 1.6 0.00 2.87 2.87 93 1031.3
20210801050151 16 0 0.0 1.6 0.00 2.87 2.87 93 1031.3
20210801045538 16 0 0.0 1.6 0.00 2.97 2.87 93 1031.3
20210801045042 16 0 0.0 1.6 0.00 2.97 2.87 92 1031.3
20210801044637 16 281 0.0 1.6 0.00 2.97 2.87 91 1031.3
20210801044041 16 0 0.0 1.6 0.00 2.97 2.87 90 1031.2
20210801043552 16 0 0.0 3.2 0.00 2.97 2.87 89 1031.3
20210801043112 16 0 0.0 3.2 0.00 2.97 2.87 91 1031.2
20210801042549 16 0 1.6 3.2 0.00 2.97 2.87 91 1031.2
20210801042040 16 0 1.6 4.8 0.00 2.97 2.87 90 1031.2
20210801041626 16 272 1.6 4.8 0.00 2.97 2.87 90 1031.3
20210801041050 16 275 0.0 4.8 0.00 2.97 2.87 91 1031.2
20210801040546 16 281 0.0 3.2 0.00 2.97 2.87 90 1031.1
20210801040055 16 0 1.6 3.2 0.00 2.97 2.87 92 1031.1
20210801035554 16 0 0.0 3.2 0.00 2.97 2.87 92 1031.1
20210801035040 16 0 0.0 4.8 0.00 2.97 2.87 92 1031.0
20210801034633 16 0 0.0 4.8 0.00 2.97 2.87 92 1031.0
20210801034108 16 263 0.0 4.8 0.00 2.97 2.87 92 1030.9
20210801033538 16 0 1.6 4.8 0.00 2.97 2.87 93 1030.9
20210801033146 16 290 0.0 3.2 0.00 2.97 2.87 93 1030.9
20210801032544 16 0 0.0 3.2 0.00 2.97 2.87 93 1030.8
20210801032039 16 290 0.0 4.8 0.00 2.97 2.87 92 1030.8
20210801031603 16 0 0.0 4.8 0.00 2.97 2.87 93 1030.8
20210801031103 16 0 1.6 3.2 0.00 2.97 2.87 94 1030.7
20210801030543 16 0 0.0 1.6 0.00 2.97 2.87 94 1030.6
20210801030040 16 0 0.0 1.6 0.00 2.97 2.87 95 1030.5
20210801025554 16 0 0.0 1.6 0.00 2.97 2.87 96 1030.4
20210801025040 16 0 0.0 1.6 0.00 2.97 2.87 96 1030.4
20210801024709 16 0 0.0 0.0 0.00 2.97 2.87 95 1030.4
20210801024038 16 0 0.0 0.0 0.00 2.97 2.87 95 1030.3
20210801023609 16 0 0.0 0.0 0.00 2.97 2.87 95 1030.3
20210801023145 16 0 0.0 0.0 0.00 2.97 2.87 95 1030.3
20210801022554 16 0 0.0 1.6 0.00 2.97 2.87 95 1030.2
20210801022048 16 0 0.0 3.2 0.00 2.97 2.87 95 1030.2
20210801021616 16 0 0.0 4.8 0.00 2.97 2.87 95 1030.2
20210801021044 16 0 1.6 4.8 0.00 2.97 2.87 95 1030.1
20210801020540 16 0 1.6 4.8 0.00 2.97 2.87 95 1030.1
20210801020214 16 0 0.0 4.8 0.00 2.97 2.87 94 1030.1
20210801015542 16 0 0.0 3.2 0.00 2.97 2.87 94 1030.1
20210801015043 16 220 0.0 3.2 0.00 2.97 2.87 95 1030.1
20210801014609 16 220 0.0 3.2 0.00 2.97 2.87 95 1030.1
20210801014043 16 0 0.0 4.8 0.05 2.97 2.87 94 1030.1
20210801013540 16 0 0.0 4.8 0.08 2.97 2.87 94 1030.3
20210801013236 16 198 0.0 4.8 0.10 2.97 2.87 94 1030.3
20210801012554 16 0 0.0 6.4 0.15 2.97 2.87 94 1030.2
20210801012042 16 0 0.0 6.4 0.18 2.97 2.87 94 1030.2
20210801011555 16 0 1.6 4.8 0.20 2.97 2.87 93 1030.2
20210801011048 16 0 1.6 4.8 0.23 2.97 2.87 92 1030.2
20210801010541 16 226 1.6 4.8 0.28 2.97 2.87 93 1030.2
20210801010119 16 0 1.6 6.4 0.30 2.97 2.87 93 1030.4
20210801005541 16 217 1.6 6.4 0.36 2.97 2.87 92 1030.2
20210801005043 16 213 0.0 6.4 0.41 2.97 2.87 93 1030.2
20210801004723 16 230 1.6 6.4 0.46 2.97 2.87 92 1030.2
20210801004053 16 238 1.6 6.4 0.46 2.95 2.82 92 1030.2
20210801003544 16 217 1.6 6.4 0.48 2.92 2.79 93 1030.2
20210801003120 16 234 1.6 6.4 0.48 2.87 2.74 94 1030.3
20210801002601 16 0 1.6 8.0 0.53 2.84 2.72 95 1030.2
20210801002044 16 0 0.0 8.0 0.56 2.82 2.67 94 1030.3
20210801001620 16 227 0.0 8.0 0.58 2.79 2.64 94 1030.3
20210801001042 16 209 1.6 9.7 0.61 2.77 2.64 94 1030.3
20210801000542 16 225 1.6 9.7 0.61 2.72 2.59 94 1030.4
20210801000133 16 246 1.6 8.0 0.64 2.67 2.57 95 1030.4
20210731235603 16 207 1.6 11.3 0.64 2.64 2.51 95 1030.4
20210731235043 16 215 3.2 11.3 0.64 2.59 2.46 94 1030.5
20210731234624 16 248 3.2 9.7 0.64 2.54 2.41 95 1030.5
20210731234040 16 249 1.6 9.7 0.64 2.49 2.36 94 1030.6
20210731233541 16 242 1.6 11.3 0.66 2.44 2.31 94 1030.6
20210731233107 16 274 1.6 11.3 0.69 2.39 2.26 94 1030.7
20210731232543 16 269 1.6 8.0 0.66 2.31 2.18 94 1030.6
20210731232041 16 248 1.6 8.0 0.69 2.26 2.13 94 1030.6
20210731231703 16 241 0.0 4.8 0.71 2.21 2.08 94 1030.5
20210731231042 16 277 0.0 9.7 0.74 2.16 2.03 94 1030.7
20210731230541 17 0 1.6 9.7 0.76 2.11 1.98 94 1030.6
20210731230135 17 250 1.6 6.4 0.81 2.06 1.93 94 1030.5
20210731225609 17 211 1.6 6.4 0.86 2.01 1.88 94 1030.5
20210731225049 17 214 1.6 8.0 0.91 1.96 1.83 94 1030.5
20210731224838 17 255 3.2 8.0 0.97 1.91 1.78 94 1030.5
20210731224044 17 280 3.2 6.4 0.99 1.83 1.70 94 1030.5
20210731223604 17 277 1.6 6.4 1.04 1.78 1.65 95 1030.4
20210731223107 17 0 0.0 8.0 1.09 1.70 1.57 95 1030.4
20210731222543 17 223 1.6 8.0 1.12 1.65 1.52 95 1030.4
20210731222047 17 215 1.6 6.4 1.09 1.57 1.45 95 1030.5
20210731221641 17 225 1.6 6.4 1.07 1.47 1.37 95 1030.5
20210731221043 17 242 3.2 6.4 0.99 1.42 1.30 94 1030.6
20210731220606 17 196 1.6 6.4 0.91 1.32 1.19 94 1030.6
20210731220119 17 230 1.6 6.4 0.81 1.22 1.09 93 1030.5
20210731215601 17 271 1.6 9.7 0.74 1.14 1.02 93 1030.4
20210731215043 17 0 3.2 9.7 0.64 1.04 0.91 92 1030.5
20210731214659 17 219 0.0 14.5 0.53 0.94 0.81 92 1030.5
20210731214044 17 217 3.2 22.5 0.43 0.84 0.71 90 1030.4
20210731213544 18 248 4.8 22.5 0.30 0.71 0.58 88 1030.4
20210731213129 18 279 9.7 20.9 0.20 0.61 0.48 85 1030.3
20210731212549 20 269 4.8 16.1 0.10 0.51 0.38 82 1029.9
20210731212043 20 271 0.0 3.2 0.08 0.48 0.36 81 1029.9
20210731211659 21 0 0.0 1.6 0.03 0.43 0.30 80 1029.9
20210731211044 21 0 0.0 3.2 0.03 0.43 0.30 78 1029.8
20210731210543 21 0 0.0 3.2 0.00 0.41 0.28 76 1029.8
20210731210138 21 0 0.0 3.2 0.00 0.41 0.28 74 1029.8